TimeEDT,TemperatureF,Dew PointF,Humidity,Sea Level PressureIn,VisibilityMPH,Wind Direction,Wind SpeedMPH,Gust SpeedMPH,PrecipitationIn,Events,Conditions,WindDirDegrees,DateUTC
12:35 AM,51.4,48.7,90,29.98,10.0,ESE,4.6,-,N/A,,Clear,110,2012-10-03 04:35:00
12:54 AM,50.5,49.1,95,29.98,7.0,ESE,5.8,-,N/A,,Clear,110,2012-10-03 04:54:00
1:14 AM,52.0,50.2,94,29.98,10.0,ESE,5.8,-,N/A,,Clear,110,2012-10-03 05:14:00
1:35 AM,52.5,50.2,92,29.98,10.0,ESE,4.6,-,N/A,,Clear,120,2012-10-03 05:35:00
1:54 AM,52.2,50.2,93,29.98,10.0,ESE,3.5,-,N/A,,Clear,110,2012-10-03 05:54:00
2:14 AM,51.6,49.8,94,29.99,10.0,ESE,5.8,-,N/A,,Clear,120,2012-10-03 06:14:00
2:35 AM,52.0,50.4,94,29.98,10.0,ESE,5.8,-,N/A,,Clear,120,2012-10-03 06:35:00
2:54 AM,52.3,50.9,95,29.98,10.0,SE,4.6,-,N/A,,Clear,130,2012-10-03 06:54:00
3:14 AM,51.6,50.2,95,29.98,5.0,SSE,3.5,-,N/A,,Scattered Clouds,160,2012-10-03 07:14:00
3:35 AM,51.1,50.0,96,29.98,0.2,Calm,Calm,-,N/A,Fog,Fog,0,2012-10-03 07:35:00
3:54 AM,49.3,48.2,96,29.98,0.2,SE,4.6,-,N/A,Fog,Fog,130,2012-10-03 07:54:00
4:14 AM,48.0,46.9,96,29.98,0.8,East,3.5,-,N/A,,Overcast,80,2012-10-03 08:14:00
4:35 AM,47.8,46.9,97,29.98,1.8,East,3.5,-,N/A,,Mostly Cloudy,90,2012-10-03 08:35:00
4:54 AM,48.4,47.5,97,29.99,0.5,Calm,Calm,-,N/A,Fog,Fog,0,2012-10-03 08:54:00
5:14 AM,47.8,46.9,97,29.99,0.2,Calm,Calm,-,N/A,Fog,Fog,0,2012-10-03 09:14:00
5:35 AM,48.2,47.3,97,30.00,0.2,Calm,Calm,-,N/A,Fog,Fog,0,2012-10-03 09:35:00
5:54 AM,49.6,48.7,97,29.99,0.2,East,4.6,-,N/A,Fog,Fog,100,2012-10-03 09:54:00
6:14 AM,51.4,50.5,97,30.00,0.2,Calm,Calm,-,N/A,Fog,Fog,0,2012-10-03 10:14:00
6:35 AM,52.3,51.4,97,29.99,0.2,East,5.8,-,N/A,Fog,Fog,100,2012-10-03 10:35:00
6:54 AM,52.0,51.1,97,29.99,0.2,Calm,Calm,-,N/A,Fog,Fog,0,2012-10-03 10:54:00
7:14 AM,51.8,50.9,97,30.00,0.2,East,4.6,-,N/A,Fog,Fog,90,2012-10-03 11:14:00
7:35 AM,52.0,51.1,97,30.00,0.2,East,4.6,-,N/A,Fog,Fog,80,2012-10-03 11:35:00
7:54 AM,52.2,51.3,97,30.01,0.2,East,4.6,-,N/A,Fog,Fog,80,2012-10-03 11:54:00
8:14 AM,52.0,51.1,97,30.02,0.2,ENE,3.5,-,N/A,Fog,Fog,70,2012-10-03 12:14:00
8:35 AM,51.3,50.4,97,30.02,0.2,ENE,3.5,-,N/A,Fog,Fog,70,2012-10-03 12:35:00
8:54 AM,51.3,50.4,97,30.02,0.2,East,3.5,-,N/A,Fog,Fog,100,2012-10-03 12:54:00
9:15 AM,51.3,50.4,97,30.02,0.2,Calm,Calm,-,N/A,Fog,Fog,0,2012-10-03 13:15:00
9:35 AM,52.7,51.8,97,30.02,0.2,East,5.8,-,N/A,Fog,Fog,90,2012-10-03 13:35:00
9:54 AM,52.3,51.4,97,30.02,0.2,East,4.6,-,N/A,Fog,Fog,80,2012-10-03 13:54:00
10:15 AM,52.5,51.6,97,30.02,0.2,East,3.5,-,N/A,Fog,Fog,100,2012-10-03 14:15:00
10:35 AM,52.2,51.3,97,30.02,0.2,East,6.9,-,N/A,Fog,Fog,100,2012-10-03 14:35:00
11:15 AM,52.2,51.3,97,30.02,0.2,ESE,4.6,-,N/A,Fog,Fog,110,2012-10-03 15:15:00
11:34 AM,53.6,52.7,97,30.02,0.2,SE,3.5,-,N/A,Fog,Fog,130,2012-10-03 15:34:00
11:54 AM,53.8,52.9,97,30.02,0.2,ENE,3.5,-,N/A,Fog,Fog,60,2012-10-03 15:54:00
12:15 PM,53.4,52.5,97,30.01,1.0,East,5.8,-,N/A,,Overcast,80,2012-10-03 16:15:00
12:34 PM,53.2,52.3,97,30.01,5.0,ENE,3.5,-,N/A,,Overcast,70,2012-10-03 16:34:00
12:54 PM,54.5,53.6,97,30.01,10.0,East,3.5,-,N/A,,Overcast,90,2012-10-03 16:54:00
1:15 PM,54.9,54.1,97,30.00,10.0,East,5.8,-,N/A,,Overcast,80,2012-10-03 17:15:00
1:34 PM,55.4,54.5,97,30.00,10.0,East,4.6,-,N/A,,Overcast,80,2012-10-03 17:34:00
1:54 PM,55.6,54.7,97,30.00,10.0,East,4.6,-,N/A,,Overcast,80,2012-10-03 17:54:00
2:15 PM,55.8,54.7,96,30.00,10.0,East,3.5,-,N/A,,Overcast,80,2012-10-03 18:15:00
2:34 PM,56.1,54.5,94,29.99,10.0,East,8.1,-,N/A,,Overcast,90,2012-10-03 18:34:00
2:54 PM,56.5,54.5,93,30.00,10.0,East,5.8,-,N/A,,Overcast,90,2012-10-03 18:54:00
3:15 PM,58.3,55.0,89,29.99,10.0,East,10.4,-,N/A,,Overcast,90,2012-10-03 19:15:00
3:34 PM,59.0,55.2,87,29.99,10.0,East,6.9,-,N/A,,Overcast,90,2012-10-03 19:34:00
3:54 PM,57.4,53.8,88,29.99,10.0,East,4.6,-,N/A,,Scattered Clouds,90,2012-10-03 19:54:00
4:15 PM,59.4,54.3,83,29.99,10.0,East,8.1,-,N/A,,Mostly Cloudy,100,2012-10-03 20:15:00
4:34 PM,59.2,53.4,81,29.98,10.0,East,9.2,-,N/A,,Overcast,100,2012-10-03 20:34:00
4:54 PM,58.5,53.6,84,29.99,10.0,East,4.6,-,N/A,,Overcast,100,2012-10-03 20:54:00
5:15 PM,58.1,53.6,85,29.99,10.0,East,6.9,-,N/A,,Overcast,100,2012-10-03 21:15:00
5:34 PM,57.9,53.6,86,29.99,10.0,ESE,5.8,-,N/A,,Overcast,110,2012-10-03 21:34:00
5:54 PM,57.7,53.8,87,29.99,10.0,ESE,5.8,-,N/A,,Overcast,110,2012-10-03 21:54:00
6:15 PM,58.1,54.0,86,29.99,10.0,East,5.8,-,N/A,,Mostly Cloudy,100,2012-10-03 22:15:00
6:34 PM,58.1,54.3,87,29.99,10.0,East,5.8,-,N/A,,Scattered Clouds,100,2012-10-03 22:34:00
6:54 PM,57.4,53.8,88,29.99,10.0,ESE,5.8,-,N/A,,Mostly Cloudy,120,2012-10-03 22:54:00
7:14 PM,57.6,54.3,89,30.00,10.0,ESE,5.8,-,N/A,,Mostly Cloudy,110,2012-10-03 23:14:00
7:34 PM,57.6,54.5,90,30.00,10.0,ESE,5.8,-,N/A,,Mostly Cloudy,120,2012-10-03 23:34:00
7:55 PM,58.3,54.5,87,30.00,10.0,ESE,5.8,-,N/A,,Overcast,110,2012-10-03 23:55:00
8:14 PM,57.4,54.5,90,30.00,10.0,ESE,5.8,-,N/A,Rain,Light Rain,120,2012-10-04 00:14:00
8:34 PM,57.2,53.8,88,30.00,10.0,ESE,4.6,-,N/A,,Overcast,120,2012-10-04 00:34:00
8:55 PM,57.6,53.6,87,30.00,10.0,ESE,6.9,-,N/A,,Overcast,110,2012-10-04 00:55:00
9:14 PM,57.4,53.6,87,30.00,10.0,ESE,6.9,-,N/A,,Overcast,110,2012-10-04 01:14:00
9:34 PM,57.4,54.0,88,30.00,10.0,ESE,8.1,-,N/A,Rain,Light Rain,120,2012-10-04 01:34:00
9:55 PM,56.7,54.5,92,30.00,10.0,ESE,6.9,-,N/A,,Overcast,120,2012-10-04 01:55:00
10:14 PM,56.8,53.8,89,30.00,5.0,ESE,6.9,-,N/A,Rain,Rain,120,2012-10-04 02:14:00
10:35 PM,56.5,53.8,91,30.00,10.0,SE,5.8,-,N/A,,Drizzle,130,2012-10-04 02:35:00
10:55 PM,56.7,54.5,92,30.00,7.0,ESE,6.9,-,N/A,Rain,Rain,120,2012-10-04 02:55:00
11:14 PM,57.2,54.7,91,30.00,10.0,ESE,4.6,-,N/A,Rain,Rain,110,2012-10-04 03:14:00
11:35 PM,57.4,54.1,89,30.00,10.0,East,8.1,-,N/A,,Overcast,90,2012-10-04 03:35:00
11:55 PM,57.2,54.9,92,29.99,10.0,East,8.1,-,N/A,,Overcast,80,2012-10-04 03:55:00